When you browse on this site, cookies collect data to enhance your experience and personalize the content and advertising you see.
Visit our Privacy Policy to learn more. By continuing to use the site, you agree to this use of cookies and data.
  • In United Kingdom
  • List of Countries
  • For 7 days
  • Water Temperature
  • Weather Map
  • Weather Widgets
  • user-avatar
    Login

    Hourly Weather Cormaia

    Today, 22 September, Sunday

    Time Temperature Precipitation Wind Pressure Humidity
    00:00 +6°C° 0 mm 1 mps 708 mmHg 81%
    01:00 +6°C° 0 mm 1 mps 708 mmHg 82%
    02:00 +5°C° 0 mm 0 mps 708 mmHg 84%
    03:00 +5°C° 0 mm 0 mps 708 mmHg 84%
    04:00 +4°C° 0 mm 0 mps 707 mmHg 84%
    05:00 +5°C° 0 mm 1 mps 707 mmHg 84%
    06:00 +6°C° 0 mm 0 mps 707 mmHg 77%
    07:00 +8°C° 0 mm 0 mps 707 mmHg 70%
    08:00 +10°C° 0 mm 0 mps 708 mmHg 60%
    09:00 +13°C° 0 mm 1 mps 708 mmHg 54%
    10:00 +15°C° 0 mm 1 mps 708 mmHg 49%
    11:00 +18°C° 0 mm 1 mps 707 mmHg 43%
    12:00 +19°C° 0 mm 1 mps 707 mmHg 42%
    13:00 +20°C° 0 mm 1 mps 707 mmHg 40%
    14:00 +19°C° 0 mm 2 mps 707 mmHg 39%
    15:00 +19°C° 0 mm 1 mps 706 mmHg 43%
    16:00 +19°C° 0 mm 1 mps 705 mmHg 47%
    17:00 +18°C° 0 mm 1 mps 704 mmHg 50%
    18:00 +15°C° 0 mm 1 mps 704 mmHg 56%
    19:00 +13°C° 0 mm 1 mps 704 mmHg 62%
    20:00 +10°C° 0 mm 1 mps 704 mmHg 68%
    21:00 +10°C° 0 mm 1 mps 704 mmHg 68%
    22:00 +10°C° 0 mm 1 mps 704 mmHg 68%
    23:00 +9°C° 0 mm 1 mps 704 mmHg 68%

    Tomorrow, 23 September, Monday

    Time Temperature Precipitation Wind Pressure Humidity
    00:00 +9°C° 0 mm 1 mps 704 mmHg 67%
    01:00 +9°C° 0 mm 1 mps 704 mmHg 66%
    02:00 +9°C° 0 mm 1 mps 704 mmHg 64%
    03:00 +9°C° 0 mm 1 mps 703 mmHg 64%
    04:00 +9°C° 0 mm 1 mps 703 mmHg 63%
    05:00 +9°C° 0 mm 1 mps 703 mmHg 62%
    06:00 +10°C° 0 mm 1 mps 703 mmHg 59%
    07:00 +11°C° 0 mm 0 mps 703 mmHg 56%
    08:00 +12°C° 0 mm 0 mps 703 mmHg 53%
    09:00 +15°C° 0 mm 0 mps 704 mmHg 48%
    10:00 +19°C° 0 mm 1 mps 704 mmHg 42%
    11:00 +21°C° 0 mm 1 mps 704 mmHg 36%
    12:00 +21°C° 0 mm 1 mps 704 mmHg 35%
    13:00 +22°C° 0 mm 1 mps 703 mmHg 35%
    14:00 +22°C° 0 mm 1 mps 703 mmHg 35%
    15:00 +21°C° 0 mm 1 mps 703 mmHg 39%
    16:00 +20°C° 0 mm 1 mps 702 mmHg 44%
    17:00 +18°C° 0 mm 0 mps 702 mmHg 49%
    18:00 +18°C° 0 mm 1 mps 702 mmHg 52%
    19:00 +16°C° 0 mm 1 mps 702 mmHg 55%
    20:00 +15°C° 0 mm 1 mps 702 mmHg 58%
    21:00 +14°C° 0 mm 1 mps 702 mmHg 60%
    22:00 +14°C° 0 mm 1 mps 702 mmHg 62%
    23:00 +13°C° 0 mm 1 mps 702 mmHg 64%

    Day after tomorrow, 24 September, Tuesday

    Time Temperature Precipitation Wind Pressure Humidity
    00:00 +13°C° 0 mm 1 mps 702 mmHg 65%
    01:00 +13°C° 0 mm 1 mps 702 mmHg 66%
    02:00 +13°C° 0 mm 1 mps 702 mmHg 68%
    03:00 +13°C° 0 mm 1 mps 702 mmHg 67%
    04:00 +12°C° 0 mm 1 mps 702 mmHg 67%
    05:00 +12°C° 0 mm 1 mps 702 mmHg 67%
    06:00 +13°C° 0 mm 1 mps 702 mmHg 65%
    07:00 +14°C° 0 mm 1 mps 702 mmHg 64%
    08:00 +14°C° 0 mm 1 mps 702 mmHg 62%
    09:00 +16°C° 0 mm 1 mps 702 mmHg 56%
    10:00 +19°C° 0 mm 1 mps 703 mmHg 50%
    11:00 +21°C° 0 mm 1 mps 703 mmHg 43%
    12:00 +21°C° 0 mm 1 mps 703 mmHg 45%
    13:00 +20°C° 0 mm 1 mps 702 mmHg 46%
    14:00 +19°C° 0 mm 2 mps 702 mmHg 48%
    15:00 +19°C° 0 mm 1 mps 702 mmHg 51%
    16:00 +19°C° 0 mm 1 mps 701 mmHg 55%
    17:00 +18°C° 0 mm 1 mps 701 mmHg 59%
    18:00 +15°C° 0 mm 1 mps 701 mmHg 65%
    19:00 +13°C° 0 mm 1 mps 701 mmHg 72%
    20:00 +10°C° 0 mm 0 mps 701 mmHg 78%
    21:00 +10°C° 0 mm 0 mps 701 mmHg 79%
    22:00 +11°C° 0 mm 1 mps 701 mmHg 80%
    23:00 +10°C° 0 mm 1 mps 701 mmHg 82%

    25 September, Wednesday

    Time Temperature Precipitation Wind Pressure Humidity
    00:00 +10°C° 0 mm 1 mps 701 mmHg 82%
    01:00 +10°C° 0 mm 1 mps 701 mmHg 82%
    02:00 +10°C° 0 mm 1 mps 701 mmHg 83%
    03:00 +10°C° 0 mm 1 mps 701 mmHg 83%
    04:00 +9°C° 0 mm 1 mps 701 mmHg 84%
    05:00 +9°C° 0 mm 1 mps 701 mmHg 84%
    06:00 +11°C° 0 mm 1 mps 701 mmHg 79%
    07:00 +11°C° 0 mm 0 mps 701 mmHg 75%
    08:00 +12°C° 0 mm 0 mps 701 mmHg 70%
    09:00 +15°C° 0 mm 1 mps 702 mmHg 65%
    10:00 +16°C° 0 mm 1 mps 702 mmHg 59%
    11:00 +18°C° 0 mm 2 mps 702 mmHg 54%
    12:00 +17°C° 0.1 mm 2 mps 702 mmHg 59%
    13:00 +16°C° 0.1 mm 1 mps 701 mmHg 63%
    14:00 +16°C° 0.1 mm 1 mps 701 mmHg 68%
    15:00 +15°C° 0.2 mm 1 mps 701 mmHg 75%
    16:00 +14°C° 0.2 mm 1 mps 700 mmHg 82%
    17:00 +12°C° 0.2 mm 0 mps 700 mmHg 90%
    18:00 +12°C° 0.2 mm 0 mps 700 mmHg 91%
    19:00 +11°C° 0.2 mm 0 mps 700 mmHg 92%
    20:00 +11°C° 0.2 mm 0 mps 701 mmHg 93%
    21:00 +11°C° 0.5 mm 0 mps 701 mmHg 95%
    22:00 +11°C° 0.5 mm 0 mps 700 mmHg 96%
    23:00 +11°C° 0.5 mm 0 mps 700 mmHg 97%

    26 September, Thursday

    Time Temperature Precipitation Wind Pressure Humidity
    00:00 +11°C° 0.6 mm 0 mps 700 mmHg 98%
    01:00 +11°C° 0.6 mm 0 mps 700 mmHg 98%
    02:00 +11°C° 0.6 mm 0 mps 700 mmHg 98%
    03:00 +11°C° 0.3 mm 0 mps 700 mmHg 98%
    04:00 +11°C° 0.3 mm 0 mps 700 mmHg 98%
    05:00 +11°C° 0.3 mm 0 mps 700 mmHg 98%
    06:00 +11°C° 0.5 mm 0 mps 700 mmHg 98%
    07:00 +11°C° 0.5 mm 0 mps 701 mmHg 98%
    08:00 +12°C° 0.5 mm 0 mps 701 mmHg 98%
    09:00 +12°C° 0.5 mm 0 mps 701 mmHg 97%
    10:00 +13°C° 0.5 mm 1 mps 701 mmHg 97%
    11:00 +13°C° 0.5 mm 1 mps 701 mmHg 96%
    12:00 +13°C° 0.6 mm 1 mps 701 mmHg 96%
    13:00 +13°C° 0.6 mm 1 mps 701 mmHg 96%
    14:00 +13°C° 0.6 mm 1 mps 701 mmHg 96%
    15:00 +13°C° 0.2 mm 1 mps 701 mmHg 94%
    16:00 +13°C° 0.2 mm 1 mps 701 mmHg 93%
    17:00 +14°C° 0.2 mm 1 mps 702 mmHg 92%
    18:00 +13°C° 0 mm 1 mps 702 mmHg 93%
    19:00 +12°C° 0 mm 1 mps 702 mmHg 95%
    20:00 +11°C° 0 mm 1 mps 702 mmHg 96%
    21:00 +10°C° 0 mm 1 mps 702 mmHg 96%
    22:00 +10°C° 0 mm 1 mps 703 mmHg 96%
    23:00 +10°C° 0 mm 1 mps 703 mmHg 96%

    27 September, Friday

    Time Temperature Precipitation Wind Pressure Humidity
    00:00 +10°C° 0 mm 1 mps 703 mmHg 96%
    01:00 +10°C° 0 mm 1 mps 703 mmHg 96%
    02:00 +9°C° 0 mm 1 mps 703 mmHg 96%
    03:00 +9°C° 0 mm 1 mps 703 mmHg 96%
    04:00 +9°C° 0 mm 1 mps 704 mmHg 96%
    05:00 +9°C° 0 mm 1 mps 704 mmHg 96%
    06:00 +9°C° 0 mm 0 mps 704 mmHg 94%
    07:00 +10°C° 0 mm 0 mps 704 mmHg 92%
    08:00 +11°C° 0 mm 0 mps 704 mmHg 90%
    09:00 +12°C° 0 mm 0 mps 705 mmHg 83%
    10:00 +15°C° 0 mm 1 mps 705 mmHg 76%
    11:00 +16°C° 0 mm 1 mps 706 mmHg 69%
    12:00 +18°C° 0 mm 1 mps 705 mmHg 67%
    13:00 +17°C° 0 mm 2 mps 705 mmHg 64%
    14:00 +18°C° 0 mm 2 mps 705 mmHg 61%
    15:00 +18°C° 0 mm 1 mps 705 mmHg 63%
    16:00 +18°C° 0 mm 1 mps 705 mmHg 66%
    17:00 +18°C° 0 mm 1 mps 705 mmHg 68%
    18:00 +15°C° 0 mm 1 mps 705 mmHg 73%
    19:00 +13°C° 0 mm 1 mps 705 mmHg 79%
    20:00 +11°C° 0 mm 1 mps 705 mmHg 85%
    21:00 +11°C° 0 mm 1 mps 705 mmHg 85%
    22:00 +11°C° 0 mm 1 mps 705 mmHg 86%
    23:00 +10°C° 0 mm 1 mps 706 mmHg 87%
    Show more